timestamp,wind_dir_avg,wind_spd_max_dir,wind_spd_avg,wind_spd_gust,battery_voltage,lat,long
2019-02-08 00:00:00+00:00,127.0,141.0,1.6,2.92,,47.59359,-54.27349
2019-02-08 00:10:00+00:00,112.0,101.0,1.81,2.92,,47.59359,-54.27349
2019-02-08 00:20:00+00:00,108.0,92.0,1.9,2.77,,47.59359,-54.27349
2019-02-08 00:30:00+00:00,121.0,120.0,1.66,2.37,,47.59359,-54.27349
2019-02-08 00:40:00+00:00,110.0,102.0,1.99,3.05,,47.59359,-54.27349
2019-02-08 00:50:00+00:00,115.0,125.0,2.81,4.06,,47.59359,-54.27349
2019-02-08 01:00:00+00:00,108.0,113.0,2.06,3.19,,47.59359,-54.27349
2019-02-08 01:10:00+00:00,97.0,87.0,2.03,3.63,,47.59359,-54.27349
2019-02-08 01:20:00+00:00,100.0,94.0,1.74,2.43,,47.59359,-54.27349
2019-02-08 01:30:00+00:00,101.0,97.0,1.81,2.4,,47.59359,-54.27349
2019-02-08 01:40:00+00:00,123.0,139.0,1.29,1.97,,47.59359,-54.27349
2019-02-08 01:50:00+00:00,134.0,121.0,2.0,2.46,,47.59359,-54.27349
2019-02-08 02:00:00+00:00,130.0,145.0,1.45,1.92,,47.59359,-54.27349
2019-02-08 02:10:00+00:00,89.0,90.0,1.56,2.18,,47.59359,-54.27349
2019-02-08 02:20:00+00:00,109.0,110.0,1.35,2.41,,47.59359,-54.27349
2019-02-08 02:30:00+00:00,100.0,100.0,1.74,2.2,,47.59359,-54.27349
2019-02-08 02:40:00+00:00,87.0,81.0,1.93,2.77,,47.59359,-54.27349
2019-02-08 02:50:00+00:00,83.0,81.0,2.67,3.47,,47.59359,-54.27349
2019-02-08 03:00:00+00:00,93.0,96.0,1.07,1.45,,47.59359,-54.27349
2019-02-08 03:10:00+00:00,86.0,91.0,2.0,2.35,,47.59359,-54.27349
2019-02-08 03:20:00+00:00,98.0,101.0,2.15,2.81,,47.59359,-54.27349
2019-02-08 03:30:00+00:00,97.0,106.0,1.44,2.23,,47.59359,-54.27349
2019-02-08 03:40:00+00:00,105.0,108.0,1.5,2.33,,47.59359,-54.27349
2019-02-08 03:50:00+00:00,90.0,84.0,2.17,2.67,,47.59359,-54.27349
2019-02-08 04:00:00+00:00,91.0,79.0,2.69,3.43,,47.59359,-54.27349
2019-02-08 04:10:00+00:00,90.0,90.0,2.71,4.09,,47.59359,-54.27349
2019-02-08 04:20:00+00:00,96.0,106.0,2.44,3.79,,47.59359,-54.27349
2019-02-08 04:30:00+00:00,92.0,92.0,3.28,4.06,,47.59359,-54.27349
2019-02-08 04:40:00+00:00,82.0,80.0,3.2,3.7,,47.59359,-54.27349
2019-02-08 04:50:00+00:00,90.0,84.0,3.07,4.09,,47.59359,-54.27349
2019-02-08 05:00:00+00:00,80.0,83.0,3.09,3.51,,47.59359,-54.27349
2019-02-08 05:10:00+00:00,100.0,94.0,2.14,2.79,,47.59359,-54.27349
2019-02-08 05:20:00+00:00,84.0,85.0,4.11,4.66,,47.59359,-54.27349
2019-02-08 05:30:00+00:00,88.0,86.0,2.16,2.77,,47.59359,-54.27349
2019-02-08 05:40:00+00:00,92.0,81.0,2.22,2.68,,47.59359,-54.27349
2019-02-08 05:50:00+00:00,94.0,94.0,2.09,2.7,,47.59359,-54.27349
2019-02-08 06:00:00+00:00,100.0,83.0,1.53,2.12,,47.59359,-54.27349
2019-02-08 06:10:00+00:00,80.0,77.0,2.25,2.7,,47.59359,-54.27349
2019-02-08 06:20:00+00:00,78.0,72.0,2.36,2.68,,47.59359,-54.27349
2019-02-08 06:30:00+00:00,91.0,85.0,1.54,1.82,,47.59359,-54.27349
2019-02-08 06:40:00+00:00,95.0,93.0,1.09,1.68,,47.59359,-54.27349
2019-02-08 06:50:00+00:00,85.0,83.0,3.19,3.91,,47.59359,-54.27349
2019-02-08 07:00:00+00:00,50.0,54.0,3.92,4.32,,47.59359,-54.27349
2019-02-08 07:10:00+00:00,50.0,51.0,2.56,3.07,,47.59359,-54.27349
2019-02-08 07:20:00+00:00,48.0,40.0,1.96,2.59,,47.59359,-54.27349
2019-02-08 07:30:00+00:00,37.0,31.0,2.45,2.93,,47.59359,-54.27349
2019-02-08 07:40:00+00:00,130.0,130.0,1.92,2.57,,47.59359,-54.27349
2019-02-08 07:50:00+00:00,146.0,146.0,3.48,4.08,,47.59359,-54.27349
2019-02-08 08:00:00+00:00,150.0,156.0,1.78,2.08,,47.59359,-54.27349
2019-02-08 08:10:00+00:00,113.0,103.0,1.96,2.96,,47.59359,-54.27349
2019-02-08 08:20:00+00:00,137.0,133.0,2.18,2.99,,47.59359,-54.27349
2019-02-08 08:30:00+00:00,136.0,149.0,1.91,3.22,,47.59359,-54.27349
2019-02-08 08:40:00+00:00,112.0,119.0,1.72,2.56,,47.59359,-54.27349
2019-02-08 08:50:00+00:00,62.0,71.0,1.19,1.71,,47.59359,-54.27349
2019-02-08 09:00:00+00:00,175.0,156.0,0.53,0.89,,47.59359,-54.27349
2019-02-08 09:10:00+00:00,224.0,225.0,3.25,3.65,,47.59359,-54.27349
2019-02-08 09:20:00+00:00,200.0,206.0,2.74,3.35,,47.59359,-54.27349
2019-02-08 09:30:00+00:00,135.0,108.0,0.7,1.16,,47.59359,-54.27349
2019-02-08 09:40:00+00:00,7.0,5.0,2.19,2.54,,47.59359,-54.27349
2019-02-08 09:50:00+00:00,3.0,4.0,3.21,3.96,,47.59359,-54.27349
2019-02-08 10:00:00+00:00,32.0,30.0,3.31,3.73,,47.59359,-54.27349
2019-02-08 10:10:00+00:00,63.0,64.0,2.17,2.62,,47.59359,-54.27349
2019-02-08 10:20:00+00:00,28.0,39.0,1.89,2.53,,47.59359,-54.27349
2019-02-08 10:30:00+00:00,28.0,26.0,2.66,3.15,,47.59359,-54.27349
2019-02-08 10:40:00+00:00,31.0,34.0,2.17,2.42,,47.59359,-54.27349
2019-02-08 10:50:00+00:00,169.0,166.0,1.47,2.41,,47.59359,-54.27349
2019-02-08 11:00:00+00:00,165.0,166.0,2.84,3.48,,47.59359,-54.27349
2019-02-08 11:10:00+00:00,148.0,160.0,3.07,3.69,,47.59359,-54.27349
2019-02-08 11:20:00+00:00,146.0,151.0,3.14,3.83,,47.59359,-54.27349
2019-02-08 11:30:00+00:00,135.0,138.0,2.29,2.66,,47.59359,-54.27349
2019-02-08 11:40:00+00:00,142.0,145.0,2.56,3.13,,47.59359,-54.27349
2019-02-08 11:50:00+00:00,132.0,131.0,3.15,3.64,,47.59359,-54.27349
2019-02-08 12:00:00+00:00,169.0,171.0,4.51,5.29,,47.59359,-54.27349
2019-02-08 12:10:00+00:00,163.0,164.0,4.37,4.92,,47.59359,-54.27349
2019-02-08 12:20:00+00:00,159.0,159.0,3.74,4.11,,47.59359,-54.27349
2019-02-08 12:30:00+00:00,168.0,169.0,3.07,3.74,,47.59359,-54.27349
2019-02-08 12:40:00+00:00,157.0,156.0,3.07,3.46,,47.59359,-54.27349
2019-02-08 12:50:00+00:00,159.0,161.0,2.89,3.48,,47.59359,-54.27349
2019-02-08 13:00:00+00:00,138.0,141.0,3.17,3.74,,47.59359,-54.27349
2019-02-08 13:10:00+00:00,131.0,127.0,2.96,3.49,,47.59359,-54.27349
2019-02-08 13:20:00+00:00,151.0,152.0,2.61,3.45,,47.59359,-54.27349
2019-02-08 13:30:00+00:00,154.0,165.0,2.02,2.53,,47.59359,-54.27349
2019-02-08 13:40:00+00:00,160.0,166.0,4.01,4.83,,47.59359,-54.27349
2019-02-08 13:50:00+00:00,165.0,168.0,4.2,4.87,,47.59359,-54.27349
2019-02-08 14:00:00+00:00,172.0,169.0,3.91,4.85,,47.59359,-54.27349
2019-02-08 14:10:00+00:00,177.0,180.0,5.17,5.88,,47.59359,-54.27349
2019-02-08 14:20:00+00:00,181.0,186.0,5.65,6.22,,47.59359,-54.27349
2019-02-08 14:30:00+00:00,171.0,177.0,5.54,5.97,,47.59359,-54.27349
2019-02-08 14:40:00+00:00,170.0,168.0,5.73,6.54,,47.59359,-54.27349
2019-02-08 14:50:00+00:00,180.0,181.0,6.61,7.17,,47.59359,-54.27349
2019-02-08 15:00:00+00:00,182.0,183.0,6.28,6.99,,47.59359,-54.27349
2019-02-08 15:10:00+00:00,206.0,212.0,6.56,8.08,,47.59359,-54.27349
2019-02-08 15:20:00+00:00,209.0,212.0,8.65,9.79,,47.59359,-54.27349
2019-02-08 15:30:00+00:00,213.0,214.0,8.98,10.39,,47.59359,-54.27349
2019-02-08 15:40:00+00:00,212.0,211.0,7.95,8.48,,47.59359,-54.27349
2019-02-08 15:50:00+00:00,210.0,214.0,8.58,9.71,,47.59359,-54.27349
2019-02-08 16:00:00+00:00,209.0,214.0,7.52,8.56,,47.59359,-54.27349
2019-02-08 16:10:00+00:00,211.0,211.0,7.63,8.63,,47.59359,-54.27349
2019-02-08 16:20:00+00:00,207.0,209.0,10.29,11.59,,47.59359,-54.27349
2019-02-08 16:30:00+00:00,206.0,213.0,8.47,9.07,,47.59359,-54.27349
2019-02-08 16:40:00+00:00,210.0,211.0,8.41,9.32,,47.59359,-54.27349
2019-02-08 16:50:00+00:00,209.0,209.0,7.74,8.48,,47.59359,-54.27349
2019-02-08 17:00:00+00:00,211.0,211.0,8.39,10.16,,47.59359,-54.27349
2019-02-08 17:10:00+00:00,208.0,210.0,9.26,10.49,,47.59359,-54.27349
2019-02-08 17:20:00+00:00,217.0,218.0,8.85,9.51,,47.59359,-54.27349
2019-02-08 17:30:00+00:00,215.0,216.0,8.22,9.03,,47.59359,-54.27349
2019-02-08 17:40:00+00:00,214.0,216.0,8.52,9.49,,47.59359,-54.27349
2019-02-08 17:50:00+00:00,200.0,213.0,8.32,9.79,,47.59359,-54.27349
2019-02-08 18:00:00+00:00,204.0,211.0,9.99,11.19,,47.59359,-54.27349
2019-02-08 18:10:00+00:00,208.0,210.0,10.39,11.48,,47.59359,-54.27349
2019-02-08 18:20:00+00:00,220.0,219.0,8.91,9.78,,47.59359,-54.27349
2019-02-08 18:30:00+00:00,222.0,225.0,9.34,10.36,,47.59359,-54.27349
2019-02-08 18:40:00+00:00,210.0,213.0,10.15,12.22,,47.59359,-54.27349
2019-02-08 18:50:00+00:00,215.0,221.0,9.44,10.38,,47.59359,-54.27349
2019-02-08 19:00:00+00:00,210.0,214.0,9.65,10.91,,47.59359,-54.27349
2019-02-08 19:10:00+00:00,207.0,206.0,10.88,12.6,,47.59359,-54.27349
2019-02-08 19:20:00+00:00,207.0,211.0,9.72,11.63,,47.59359,-54.27349
2019-02-08 19:30:00+00:00,210.0,210.0,10.43,11.8,,47.59359,-54.27349
2019-02-08 19:40:00+00:00,209.0,209.0,10.26,11.48,,47.59359,-54.27349
2019-02-08 19:50:00+00:00,208.0,215.0,10.21,11.64,,47.59359,-54.27349
2019-02-08 20:00:00+00:00,208.0,215.0,9.79,11.43,,47.59359,-54.27349
2019-02-08 20:10:00+00:00,210.0,209.0,9.01,10.36,,47.59359,-54.27349
2019-02-08 20:20:00+00:00,208.0,209.0,11.42,12.84,,47.59359,-54.27349
2019-02-08 20:30:00+00:00,210.0,207.0,11.06,11.86,,47.59359,-54.27349
2019-02-08 20:40:00+00:00,210.0,208.0,9.97,11.73,,47.59359,-54.27349
2019-02-08 20:50:00+00:00,209.0,214.0,10.08,11.26,,47.59359,-54.27349
2019-02-08 21:00:00+00:00,209.0,212.0,11.04,12.79,,47.59359,-54.27349
2019-02-08 21:10:00+00:00,210.0,212.0,10.39,11.75,,47.59359,-54.27349
2019-02-08 21:20:00+00:00,210.0,207.0,10.41,11.91,,47.59359,-54.27349
2019-02-08 21:30:00+00:00,210.0,211.0,9.08,10.15,,47.59359,-54.27349
2019-02-08 21:40:00+00:00,206.0,213.0,10.02,11.43,,47.59359,-54.27349
2019-02-08 21:50:00+00:00,203.0,205.0,8.96,10.6,,47.59359,-54.27349
2019-02-08 22:00:00+00:00,207.0,210.0,8.56,10.74,,47.59359,-54.27349
2019-02-08 22:10:00+00:00,209.0,211.0,9.35,10.58,,47.59359,-54.27349
2019-02-08 22:20:00+00:00,207.0,211.0,9.35,10.78,,47.59359,-54.27349
2019-02-08 22:30:00+00:00,199.0,212.0,8.36,9.63,,47.59359,-54.27349
2019-02-08 22:40:00+00:00,193.0,198.0,8.75,10.32,,47.59359,-54.27349
2019-02-08 22:50:00+00:00,195.0,200.0,9.86,11.42,,47.59359,-54.27349
2019-02-08 23:00:00+00:00,206.0,205.0,11.48,13.16,,47.59359,-54.27349
2019-02-08 23:10:00+00:00,191.0,189.0,9.84,11.25,,47.59359,-54.27349
2019-02-08 23:20:00+00:00,184.0,180.0,11.46,14.67,,47.59359,-54.27349
2019-02-08 23:30:00+00:00,186.0,188.0,12.58,14.85,,47.59359,-54.27349
2019-02-08 23:40:00+00:00,190.0,190.0,14.4,18.49,,47.59359,-54.27349
2019-02-08 23:50:00+00:00,190.0,189.0,12.1,14.16,,47.59359,-54.27349
